Time,TemperatureF,DewpointF,PressureIn,WindDirection,WindDirectionDegrees,WindSpeedMPH,WindSpeedGustMPH,Humidity,HourlyPrecipIn,Conditions,Clouds,dailyrainin,SoftwareType,DateUTC
2013-05-11 00:09:00,-999.0,-99.9,30.06,North,-999,-999.0,-999.0,-999,-99.99,,,0.00,weatherlink.com 1.10,2013-05-11 04:09:00,
2013-05-11 00:24:00,-999.0,-99.9,30.06,North,-999,-999.0,-999.0,-999,-99.99,,,0.00,weatherlink.com 1.10,2013-05-11 04:24:00,
2013-05-11 00:39:00,-999.0,-99.9,30.06,North,-999,-999.0,-999.0,-999,-99.99,,,0.00,weatherlink.com 1.10,2013-05-11 04:39:00,
2013-05-11 00:54:00,-999.0,-99.9,30.06,North,-999,-999.0,-999.0,-999,-99.99,,,0.00,weatherlink.com 1.10,2013-05-11 04:54:00,
2013-05-11 01:09:00,-999.0,-99.9,30.06,North,-999,-999.0,-999.0,-999,-99.99,,,0.00,weatherlink.com 1.10,2013-05-11 05:09:00,
2013-05-11 01:24:00,-999.0,-99.9,30.06,North,-999,-999.0,-999.0,-999,-99.99,,,0.00,weatherlink.com 1.10,2013-05-11 05:24:00,
2013-05-11 01:39:00,-999.0,-99.9,30.06,North,-999,-999.0,-999.0,-999,-99.99,,,0.00,weatherlink.com 1.10,2013-05-11 05:39:00,
2013-05-11 01:54:00,-999.0,-99.9,30.05,North,-999,-999.0,-999.0,-999,-99.99,,,0.00,weatherlink.com 1.10,2013-05-11 05:54:00,
2013-05-11 02:09:00,-999.0,-99.9,30.05,North,-999,-999.0,-999.0,-999,-99.99,,,0.00,weatherlink.com 1.10,2013-05-11 06:09:00,
2013-05-11 02:24:00,-999.0,-99.9,30.04,North,-999,-999.0,-999.0,-999,-99.99,,,0.00,weatherlink.com 1.10,2013-05-11 06:24:00,
2013-05-11 02:39:00,-999.0,-99.9,30.04,North,-999,-999.0,-999.0,-999,-99.99,,,0.00,weatherlink.com 1.10,2013-05-11 06:39:00,
2013-05-11 02:54:00,-999.0,-99.9,30.04,North,-999,-999.0,-999.0,-999,-99.99,,,0.00,weatherlink.com 1.10,2013-05-11 06:54:00,
2013-05-11 03:09:00,-999.0,-99.9,30.04,North,-999,-999.0,-999.0,-999,-99.99,,,0.00,weatherlink.com 1.10,2013-05-11 07:09:00,
2013-05-11 03:24:00,-999.0,-99.9,30.03,North,-999,-999.0,-999.0,-999,-99.99,,,0.00,weatherlink.com 1.10,2013-05-11 07:24:00,
2013-05-11 03:39:00,-999.0,-99.9,30.03,North,-999,-999.0,-999.0,-999,-99.99,,,0.00,weatherlink.com 1.10,2013-05-11 07:39:00,
2013-05-11 03:54:00,73.7,72.0,30.03,SE,134,0.0,-999.0,94,-99.99,,,0.00,weatherlink.com 1.10,2013-05-11 07:54:00,
2013-05-11 04:09:00,73.6,72.0,30.03,SE,134,0.0,-999.0,94,-99.99,,,0.00,weatherlink.com 1.10,2013-05-11 08:09:00,
2013-05-11 04:24:00,73.5,72.0,30.03,SE,134,0.0,-999.0,94,-99.99,,,0.00,weatherlink.com 1.10,2013-05-11 08:24:00,
2013-05-11 04:39:00,73.4,72.0,30.03,SE,134,0.0,-999.0,94,-99.99,,,0.00,weatherlink.com 1.10,2013-05-11 08:39:00,
2013-05-11 04:54:00,73.4,72.0,30.03,SE,134,0.0,-999.0,94,-99.99,,,0.00,weatherlink.com 1.10,2013-05-11 08:54:00,
2013-05-11 05:09:00,73.3,72.0,30.03,SE,134,0.0,-999.0,94,-99.99,,,0.00,weatherlink.com 1.10,2013-05-11 09:09:00,
2013-05-11 05:24:00,73.3,72.0,30.03,SE,134,0.0,-999.0,95,-99.99,,,0.00,weatherlink.com 1.10,2013-05-11 09:24:00,
2013-05-11 05:39:00,73.4,72.0,30.02,SE,134,0.0,-999.0,95,-99.99,,,0.00,weatherlink.com 1.10,2013-05-11 09:39:00,
2013-05-11 05:54:00,73.3,72.0,30.01,SE,134,0.0,-999.0,95,-99.99,,,0.00,weatherlink.com 1.10,2013-05-11 09:54:00,
2013-05-11 06:09:00,73.5,72.0,30.01,SE,134,0.0,-999.0,95,-99.99,,,0.00,weatherlink.com 1.10,2013-05-11 10:09:00,
2013-05-11 06:24:00,74.0,73.0,30.02,SE,134,0.0,-999.0,96,-99.99,,,0.00,weatherlink.com 1.10,2013-05-11 10:24:00,
2013-05-11 06:39:00,74.2,73.0,30.02,SE,134,0.0,-999.0,95,-99.99,,,0.00,weatherlink.com 1.10,2013-05-11 10:39:00,
2013-05-11 06:54:00,74.4,73.0,30.03,SE,134,0.0,-999.0,96,-99.99,,,0.00,weatherlink.com 1.10,2013-05-11 10:54:00,
2013-05-11 07:09:00,74.6,73.0,30.03,SE,134,0.0,-999.0,96,-99.99,,,0.00,weatherlink.com 1.10,2013-05-11 11:09:00,
2013-05-11 07:24:00,75.2,74.0,30.04,SE,134,0.0,-999.0,96,-99.99,,,0.00,weatherlink.com 1.10,2013-05-11 11:24:00,
2013-05-11 07:39:00,75.9,75.0,30.04,SE,135,0.0,-999.0,96,-99.99,,,0.00,weatherlink.com 1.10,2013-05-11 11:39:00,
2013-05-11 07:54:00,76.8,76.0,30.05,SE,136,0.0,-999.0,96,-99.99,,,0.00,weatherlink.com 1.10,2013-05-11 11:54:00,
2013-05-11 08:09:00,78.2,76.0,30.05,SSE,150,0.0,-999.0,94,-99.99,,,0.00,weatherlink.com 1.10,2013-05-11 12:09:00,
2013-05-11 08:24:00,80.1,77.0,30.05,SSW,209,1.0,-999.0,89,-99.99,,,0.00,weatherlink.com 1.10,2013-05-11 12:24:00,
2013-05-11 08:39:00,80.8,76.0,30.06,South,191,0.0,-999.0,86,-99.99,,,0.00,weatherlink.com 1.10,2013-05-11 12:39:00,
2013-05-11 08:54:00,81.5,77.0,30.06,SE,138,0.0,-999.0,86,-99.99,,,0.00,weatherlink.com 1.10,2013-05-11 12:54:00,
2013-05-11 09:09:00,82.1,77.0,30.06,SE,132,0.0,-999.0,85,-99.99,,,0.00,weatherlink.com 1.10,2013-05-11 13:09:00,
2013-05-11 09:24:00,83.1,78.0,30.06,SE,128,0.0,-999.0,83,-99.99,,,0.00,weatherlink.com 1.10,2013-05-11 13:24:00,
2013-05-11 09:39:00,84.4,78.0,30.06,SE,126,0.0,-999.0,81,-99.99,,,0.00,weatherlink.com 1.10,2013-05-11 13:39:00,
2013-05-11 09:54:00,86.1,78.0,30.06,SSE,148,0.0,-999.0,77,-99.99,,,0.00,weatherlink.com 1.10,2013-05-11 13:54:00,
2013-05-11 10:09:00,85.8,77.0,30.06,SW,228,3.0,-999.0,76,-99.99,,,0.00,weatherlink.com 1.10,2013-05-11 14:09:00,
2013-05-11 10:24:00,85.8,77.0,30.07,ESE,113,1.0,-999.0,76,-99.99,,,0.00,weatherlink.com 1.10,2013-05-11 14:24:00,
2013-05-11 10:39:00,86.2,77.0,30.07,SSE,156,0.0,-999.0,75,-99.99,,,0.00,weatherlink.com 1.10,2013-05-11 14:39:00,
2013-05-11 10:54:00,87.5,78.0,30.07,ESE,109,0.0,-999.0,73,-99.99,,,0.00,weatherlink.com 1.10,2013-05-11 14:54:00,
2013-05-11 11:09:00,87.6,78.0,30.06,South,169,0.0,-999.0,74,-99.99,,,0.00,weatherlink.com 1.10,2013-05-11 15:09:00,
2013-05-11 11:24:00,87.1,77.0,30.06,SE,127,0.0,-999.0,72,-99.99,,,0.00,weatherlink.com 1.10,2013-05-11 15:24:00,
2013-05-11 11:39:00,88.0,77.0,30.06,SW,230,3.0,-999.0,70,-99.99,,,0.00,weatherlink.com 1.10,2013-05-11 15:39:00,
2013-05-11 11:54:00,87.6,76.0,30.06,SW,232,1.0,-999.0,69,-99.99,,,0.00,weatherlink.com 1.10,2013-05-11 15:54:00,
2013-05-11 12:09:00,89.0,78.0,30.06,West,265,0.0,-999.0,69,-99.99,,,0.00,weatherlink.com 1.10,2013-05-11 16:09:00,
2013-05-11 12:24:00,89.0,78.0,30.06,SSW,202,0.0,-999.0,70,-99.99,,,0.00,weatherlink.com 1.10,2013-05-11 16:24:00,
2013-05-11 12:39:00,88.4,77.0,30.05,South,178,0.0,-999.0,68,-99.99,,,0.00,weatherlink.com 1.10,2013-05-11 16:39:00,
2013-05-11 12:54:00,88.7,77.0,30.05,WSW,241,6.0,-999.0,68,-99.99,,,0.00,weatherlink.com 1.10,2013-05-11 16:54:00,
2013-05-11 13:09:00,88.5,78.0,30.05,WSW,257,0.0,-999.0,70,-99.99,,,0.00,weatherlink.com 1.10,2013-05-11 17:09:00,
2013-05-11 13:24:00,88.7,77.0,30.04,SW,225,1.0,-999.0,69,-99.99,,,0.00,weatherlink.com 1.10,2013-05-11 17:24:00,
2013-05-11 13:39:00,88.9,78.0,30.04,SW,223,3.0,-999.0,70,-99.99,,,0.00,weatherlink.com 1.10,2013-05-11 17:39:00,
2013-05-11 13:54:00,88.6,78.0,30.05,SW,222,1.0,-999.0,70,-99.99,,,0.00,weatherlink.com 1.10,2013-05-11 17:54:00,
2013-05-11 14:09:00,88.3,77.0,30.04,WSW,243,3.0,-999.0,70,-99.99,,,0.00,weatherlink.com 1.10,2013-05-11 18:09:00,
2013-05-11 14:24:00,88.6,78.0,30.03,SW,226,1.0,-999.0,71,-99.99,,,0.00,weatherlink.com 1.10,2013-05-11 18:24:00,
2013-05-11 14:39:00,89.0,78.0,30.03,WSW,246,1.0,-999.0,70,-99.99,,,0.00,weatherlink.com 1.10,2013-05-11 18:39:00,
2013-05-11 14:54:00,89.7,79.0,30.03,WSW,245,2.0,-999.0,70,-99.99,,,0.00,weatherlink.com 1.10,2013-05-11 18:54:00,
2013-05-11 15:09:00,88.6,78.0,30.03,WSW,237,3.0,-999.0,70,-99.99,,,0.00,weatherlink.com 1.10,2013-05-11 19:09:00,
2013-05-11 15:24:00,87.6,77.0,30.02,SSW,198,2.0,-999.0,70,-99.99,,,0.00,weatherlink.com 1.10,2013-05-11 19:24:00,
2013-05-11 15:39:00,87.4,77.0,30.02,WSW,249,3.0,-999.0,72,-99.99,,,0.00,weatherlink.com 1.10,2013-05-11 19:39:00,
2013-05-11 15:54:00,87.0,77.0,30.01,WSW,243,2.0,-999.0,71,-99.99,,,0.00,weatherlink.com 1.10,2013-05-11 19:54:00,
2013-05-11 16:09:00,86.4,77.0,30.01,WSW,248,4.0,-999.0,73,-99.99,,,0.00,weatherlink.com 1.10,2013-05-11 20:09:00,
2013-05-11 16:24:00,87.7,77.0,30.01,WSW,239,0.0,-999.0,71,-99.99,,,0.00,weatherlink.com 1.10,2013-05-11 20:24:00,
2013-05-11 16:39:00,87.5,77.0,30.01,SSE,160,1.0,-999.0,70,-99.99,,,0.00,weatherlink.com 1.10,2013-05-11 20:39:00,
2013-05-11 16:54:00,86.5,77.0,30.02,WSW,245,2.0,-999.0,73,-99.99,,,0.00,weatherlink.com 1.10,2013-05-11 20:54:00,
2013-05-11 17:09:00,86.6,77.0,30.02,SW,232,2.0,-999.0,72,-99.99,,,0.00,weatherlink.com 1.10,2013-05-11 21:09:00,
2013-05-11 17:24:00,86.5,77.0,30.02,WSW,240,3.0,-999.0,73,-99.99,,,0.00,weatherlink.com 1.10,2013-05-11 21:24:00,
2013-05-11 17:40:00,85.7,77.0,30.02,SW,229,2.0,-999.0,74,-99.99,,,0.00,weatherlink.com 1.10,2013-05-11 21:40:00,
2013-05-11 17:55:00,84.9,76.0,30.01,South,187,0.0,-999.0,75,-99.99,,,0.00,weatherlink.com 1.10,2013-05-11 21:55:00,
2013-05-11 18:10:00,84.4,76.0,30.01,SW,225,0.0,-999.0,76,-99.99,,,0.00,weatherlink.com 1.10,2013-05-11 22:10:00,
2013-05-11 18:25:00,83.6,76.0,30.00,WSW,242,2.0,-999.0,77,-99.99,,,0.00,weatherlink.com 1.10,2013-05-11 22:25:00,
2013-05-11 18:40:00,82.9,75.0,30.01,WSW,246,0.0,-999.0,78,-99.99,,,0.00,weatherlink.com 1.10,2013-05-11 22:40:00,
2013-05-11 18:55:00,82.3,75.0,30.01,WSW,239,1.0,-999.0,79,-99.99,,,0.00,weatherlink.com 1.10,2013-05-11 22:55:00,
2013-05-11 19:10:00,81.7,75.0,30.02,WSW,238,0.0,-999.0,80,-99.99,,,0.00,weatherlink.com 1.10,2013-05-11 23:10:00,
2013-05-11 19:25:00,81.3,75.0,30.02,SW,223,0.0,-999.0,81,-99.99,,,0.00,weatherlink.com 1.10,2013-05-11 23:25:00,
2013-05-11 19:40:00,80.8,75.0,30.03,SW,229,2.0,-999.0,82,-99.99,,,0.00,weatherlink.com 1.10,2013-05-11 23:40:00,
2013-05-11 19:55:00,80.4,75.0,30.03,WSW,240,0.0,-999.0,83,-99.99,,,0.00,weatherlink.com 1.10,2013-05-11 23:55:00,
2013-05-11 20:10:00,80.0,75.0,30.04,WSW,239,0.0,-999.0,84,-99.99,,,0.00,weatherlink.com 1.10,2013-05-12 00:10:00,
2013-05-11 20:25:00,79.5,74.0,30.04,SW,223,0.0,-999.0,84,-99.99,,,0.00,weatherlink.com 1.10,2013-05-12 00:25:00,
2013-05-11 20:40:00,79.3,75.0,30.04,SW,223,0.0,-999.0,86,-99.99,,,0.00,weatherlink.com 1.10,2013-05-12 00:40:00,
2013-05-11 20:55:00,78.9,74.0,30.04,SW,223,0.0,-999.0,86,-99.99,,,0.00,weatherlink.com 1.10,2013-05-12 00:55:00,
2013-05-11 21:10:00,78.5,74.0,30.04,SW,223,0.0,-999.0,87,-99.99,,,0.00,weatherlink.com 1.10,2013-05-12 01:10:00,
2013-05-11 21:25:00,78.3,74.0,30.04,SW,223,0.0,-999.0,87,-99.99,,,0.00,weatherlink.com 1.10,2013-05-12 01:25:00,
2013-05-11 21:40:00,77.9,74.0,30.04,SW,223,0.0,-999.0,88,-99.99,,,0.00,weatherlink.com 1.10,2013-05-12 01:40:00,
2013-05-11 21:55:00,77.5,74.0,30.05,SW,223,0.0,-999.0,88,-99.99,,,0.00,weatherlink.com 1.10,2013-05-12 01:55:00,
2013-05-11 22:10:00,77.1,74.0,30.05,SW,223,0.0,-999.0,89,-99.99,,,0.00,weatherlink.com 1.10,2013-05-12 02:10:00,
2013-05-11 22:25:00,76.8,73.0,30.05,SW,223,0.0,-999.0,89,-99.99,,,0.00,weatherlink.com 1.10,2013-05-12 02:25:00,
2013-05-11 22:40:00,76.7,74.0,30.05,SW,223,0.0,-999.0,90,-99.99,,,0.00,weatherlink.com 1.10,2013-05-12 02:40:00,
2013-05-11 22:55:00,76.5,74.0,30.05,SW,223,0.0,-999.0,90,-99.99,,,0.00,weatherlink.com 1.10,2013-05-12 02:55:00,
2013-05-11 23:10:00,76.3,73.0,30.05,SW,223,0.0,-999.0,90,-99.99,,,0.00,weatherlink.com 1.10,2013-05-12 03:10:00,
2013-05-11 23:25:00,76.2,73.0,30.05,SW,223,0.0,-999.0,90,-99.99,,,0.00,weatherlink.com 1.10,2013-05-12 03:25:00,
2013-05-11 23:40:00,76.2,74.0,30.05,SW,223,0.0,-999.0,91,-99.99,,,0.00,weatherlink.com 1.10,2013-05-12 03:40:00,
2013-05-11 23:55:00,76.3,74.0,30.06,SW,223,0.0,-999.0,91,-99.99,,,0.00,weatherlink.com 1.10,2013-05-12 03:55:00,